Classifiche scuola superiore

In questa pagina sono elencati i migliori primi dieci risultati delle prove invalsi effettuate sul nostro sito. Non vengono inseriti in classifica risultati con:

  • Nomi errati o di fantasia
  • Nome della scuola mancante
  • Tempo oggettivamente troppo basso
  • Nomi ripetuti

NB: I risultati del 2018 verranno azzerati a fine giugno 2019.
Cliccate qui per leggere i RECORD degli anni passati: anno 2015 - anno 2016 - anno 2017


ITALIANO 1a SUPERIORE Top 10

nome alunnoscuolaerroriannotempo
» MICHELE 2B liceo scientifico 0 2012 00:09:56
» GIANNI 1^V leonardo da vinci 1 2012 00:04:56
» GIACOMO 2B itis a russo 2 2007 00:08:39
» SILVIA 2 ae ivan piana 2 2006 00:09:18
» GABRIELE 1 telesio 2 2012 00:10:13
» PAOLO 2A giancarlo siani 2 2007 00:14:19
» GIULIA 1 b liceo artistico 2 2007 00:17:49
» MARTINA 2b li ettore maijorana 3 2007 00:03:37
» GIOVANNI 2b mattei 3 2006 00:05:34
» GIACOMO 2a giancarlo siani 3 2007 00:06:51

MATEMATICA 1a SUPERIORE Top 10

nome alunnoscuolaerroriannotempo
» SABINA 1b istituto g. falcone 0 2006 00:03:52
» GAIA 3b carli 0 2007 00:12:40
» CLAUDIA 3b stabiae 0 2007 00:16:12
» ALESSANDRO 1^C enrico fermi 0 2005 00:18:58
» GIOIA 1 liceo classico 0 2007 00:20:47
» MARIO 1 russel newton 0 2007 00:25:48
» CRISTIANO 1 f don milani 0 2007 00:28:18
» TOMMASO 3a galilei 0 2012 00:37:59
» PAOLO 1b me i.i.s. campus dei licei massimiliano ramadu 0 2007 00:48:14
» LINDA 1B liceo classico \"g. perticari\" 0 2007 00:58:08

ITALIANO 2a SUPERIORE Top 10

nome alunnoscuolaerroriannotempo
» YOUS 2Aa itis ponti 0 2019 00:07:05
» ARIANNA 2E af iis lunardi 0 2016 00:15:09
» LORENZO 2 aD touschek 0 2019 00:16:38
» SARA 2 A rita lev montalcini 0 2019 00:19:15
» GIULIETTA II A liceo classico g. pascoli 0 2013 00:27:52
» JACOPO 2\'E europa unita 0 2019 00:28:51
» ROBERTA 2D ipseoa celletti 0 2019 00:36:29
» GIUSEPPE 2 D ipseoa celletti formia 0 2019 00:37:34
» ALICIA 2D ipseoa celletti formia 0 2019 00:37:35
» NUNZIA 2d ipseoa celletti formia 0 2019 00:37:45

MATEMATICA 2a SUPERIORE Top 10

nome alunnoscuolaerroriannotempo
» NADIA 2 terni 0 2017 00:03:18
» PAOLO 2cs scientifico 0 2017 00:03:30
» PAOLO 2I arturo tosi 0 2017 00:03:38
» GIANFRANCO 2A manzoni 0 2017 00:04:41
» MANUEL 2AIF itt ferraris 0 2017 00:04:59
» GUSTAVO 2d alberghiero angelo celletti 0 2013 00:05:14
» PAOLO 2cs scientifico 0 2017 00:05:40
» NIVES secon liceo scientifico 0 2017 00:06:34
» ANDREA 2A I. grazio cossali 0 2013 00:06:38
» ALICE 5a romagnosi 0 2017 00:06:52

ITALIANO 3a SUPERIORE Top 10

nome alunnoscuolaerroriannotempo
» NICOLE 3 gra itis olivetti 2 2007 00:03:10
» MARTINA 5 liceo linguistico 2 2007 00:17:38
» SARA 5 Bsa itis g marconi 3 2007 00:03:48
» ANDREA V i tommaso stigliani 3 2005 00:05:14
» GAETANO 3Abio isis einaudi giordano 3 2005 00:13:43
» MATT 3 B iis cossali 4 2007 00:05:20
» SARA 5 i liceo linguistico t. stigliani 4 2005 00:05:44
» ALLEGRA 3 g iiss leonardo da vinci 4 2007 00:06:53
» ELIA 4a B cossali 4 2007 00:09:42
» GINEVRA 3^G leonardo da vinci 4 2007 00:11:04

MATEMATICA 3a SUPERIORE Top 10

nome alunnoscuolaerroriannotempo
» ALESSIA 3ASE adelaide cairoli 0 2007 00:03:40
» SARA 3D alfano 0 2005 00:09:18
» GAIA 4 c de giorgi 1 2005 00:05:50
» FEDERICO 3D alfano termoli 1 2005 00:09:28
» CORRADO 3 liceo scientifico einaudi 1 2007 00:09:51
» ROBERTO v s. anna 1 2005 00:12:16
» GAETANO 4 a i.i.s. vitruvio 1 2006 00:13:15
» NADIA 4^sup liceo linguistico 1 2007 00:17:06
» NATALIA Terza superiore 1 2006 00:20:12
» ANNAPIA 5g caruso 1 2007 00:20:18

ITALIANO 5a SUPERIORE Top 10

nome alunnoscuolaerroriannotempo
» STEFANO 5Aele iis \"g.b. pentasuglia\" 0 2019 00:03:44
» GIOVANNI 5b ipseoa san francesco di paola 1 2019 00:14:20
» ANTONIO 5I alfred nobel 1 2019 00:17:37
» GABRIELE 5B AF don milani 1 2019 00:53:59
» DAVIDE 5 francesco scaduto 2 2019 00:05:26
» CHIARA 5 D liceo ginnasio di stato f.scaduto 2 2019 00:05:42
» CARLA 5 crespi 2 2019 00:08:58
» MAURA 5b i.p.s.e.o.a paola 2 2019 00:10:45
» LUIGI 5B i.p.s.e.o.a san francesco paola 2 2019 00:12:23
» TEA 5ALL i.s.i.s michelangelo buonarroti 2 2019 00:19:35

MATEMATICA 5a SUPERIORE Top 10

nome alunnoscuolaerroriannotempo
» CRISTIANO 5a don milani 0 2019 00:03:11
» CIRA V giugliano 0 2019 00:03:15
» MARISA VB/s f.de sanctis 0 2019 00:03:20
» RITA 5 a s morvillo falcone 0 2019 00:03:28
» RITA 5 a s morvillo falcone 0 2019 00:03:31
» MARIEM 5B AF don milani 0 2019 00:03:34
» VALENTINA 5 istituto san giovanni bosco 0 2019 00:03:41
» AMALIA 5A liceo scientifico 0 2019 00:03:42
» PIETRO quint iti righi 0 2019 00:03:52
» MARGHERITA 5 san giovanni bosco 0 2019 00:03:56

INGLESE 5a SUPERIORE Top 10

nome alunnoscuolaerroriannotempo
» ALICE 2h manzoni 0 2019 00:02:12
» ELISA 5^A simone weil 0 2019 00:03:01
» FEDERICA 5^B liceo scientifico alfred nobel 0 2019 00:03:08
» LUDOVICO 5 aCA g.c falco 0 2019 00:03:16
» ALICE 5C Ri j. barozzi 0 2019 00:03:26
» ALICE 5C Ri j. barozzi 0 2019 00:03:48
» GIUSEPPE 5E liceo ginnasio di stato\"francesco scaduto\" 0 2019 00:03:50
» NATALIE 5L itet marco polo 0 2019 00:03:53
» VITTORIA 5L liceo lucio anneo seneca 0 2019 00:04:05
» BISHAL 5B aldo moro 0 2019 00:04:05


UTILITA' PROVEINVALSI.NET

ECOSOSTENIBILITA'

Grazie al nostro sito sono stati risparmiati ben 94.014.352 fogli di carta
(corrispondenti a circa 1.183 alberi) Scopri perchè »